PHENX84 YWNT-YWNT

Flight info

Callsign PHENX84
Flight time 0h 4m
Altitude 1000
Route YFTA4 PRT 3349S15103E RYB GVB HBB 3351S15115E 3350S15117E SYHD LRF BRNJ YAM65
Aircraft AS50/L-SDFGRY/C

Departure

Time 2026-05-07 11:50
Airport Westmead NETS Base Hospital Heliport (YWNT)

Arrival

Time 2026-05-07 11:55
Airport Westmead NETS Base Hospital Heliport (YWNT)
Time Latitude Longitude Altitude Speed Heading
2026-05-07 11:46 -33.79977 150.98932 64 ft 0 kts
2026-05-07 11:46 -33.79979 150.98932 71 ft 1 kts 356°
2026-05-07 11:47 -33.79981 150.98937 84 ft 0 kts 352°
2026-05-07 11:47 -33.79978 150.98941 338 ft 1 kts
2026-05-07 11:47 -33.79992 150.98972 411 ft 13 kts 136°
2026-05-07 11:47 -33.80021 150.99041 309 ft 9 kts 135°
2026-05-07 11:48 -33.80048 150.99089 328 ft 2 kts 131°
2026-05-07 11:48 -33.80095 150.99152 505 ft 28 kts 138°
2026-05-07 11:48 -33.80152 150.99320 519 ft 15 kts 132°
2026-05-07 11:48 -33.80178 150.99405 353 ft 12 kts 126°
2026-05-07 11:49 -33.80202 150.99442 429 ft 2 kts 128°
2026-05-07 11:49 -33.80214 150.99453 692 ft 6 kts 129°
2026-05-07 11:49 -33.80352 150.99600 844 ft 40 kts 151°
2026-05-07 11:49 -33.80463 150.99811 991 ft 13 kts 146°
2026-05-07 11:50 -33.80540 150.99908 971 ft 31 kts 167°
2026-05-07 11:50 -33.80818 151.00109 869 ft 63 kts 167°
2026-05-07 11:50 -33.81260 151.00392 749 ft 76 kts 163°
2026-05-07 11:50 -33.81744 151.00776 621 ft 88 kts 151°
2026-05-07 11:51 -33.82042 151.01387 512 ft 91 kts 93°
2026-05-07 11:51 -33.81895 151.02114 451 ft 86 kts 76°
2026-05-07 11:51 -33.81811 151.02818 432 ft 80 kts 89°
2026-05-07 11:51 -33.81790 151.03491 484 ft 81 kts 92°
2026-05-07 11:52 -33.81894 151.04173 530 ft 88 kts 118°
2026-05-07 11:52 -33.82108 151.04899 585 ft 97 kts 110°
2026-05-07 11:52 -33.82205 151.05749 514 ft 109 kts 95°
2026-05-07 11:52 -33.82108 151.06634 518 ft 101 kts 81°
2026-05-07 11:53 -33.82046 151.07456 524 ft 101 kts 89°
2026-05-07 11:53 -33.82064 151.08172 716 ft 80 kts 102°
2026-05-07 11:53 -33.82171 151.08816 780 ft 81 kts 125°
2026-05-07 11:53 -33.82399 151.09435 752 ft 86 kts 139°
2026-05-07 11:54 -33.82837 151.10080 524 ft 111 kts 149°
2026-05-07 11:54 -33.83378 151.10438 446 ft 62 kts 207°
2026-05-07 11:54 -33.83709 151.10242 376 ft 63 kts 234°
2026-05-07 11:54 -33.84103 151.09924 193 ft 57 kts 243°
2026-05-07 11:55 -33.84218 151.09786 63 ft 2 kts 270°
2026-05-07 11:55 -33.84215 151.09780 32 ft 1 kts 280°
2026-05-07 12:00 -33.84229 151.09779 47 ft 3 kts 278°
2026-05-07 12:00 -33.84212 151.09717 178 ft 20 kts 281°
2026-05-07 12:00 -33.84173 151.09488 233 ft 36 kts 284°
2026-05-07 12:00 -33.84058 151.09179 265 ft 55 kts 310°
2026-05-07 12:01 -33.83692 151.09451 341 ft 85 kts 46°
2026-05-07 12:01 -33.83475 151.10185 278 ft 99 kts 95°
2026-05-07 12:01 -33.83578 151.10885 398 ft 86 kts 120°
2026-05-07 12:01 -33.83821 151.11548 378 ft 89 kts 122°
2026-05-07 12:02 -33.84098 151.12257 306 ft 91 kts 123°
2026-05-07 12:02 -33.84356 151.12942 263 ft 94 kts 117°
2026-05-07 12:02 -33.84446 151.13744 243 ft 96 kts 79°
2026-05-07 12:02 -33.84298 151.14533 296 ft 95 kts 68°
2026-05-07 12:03 -33.84204 151.15280 446 ft 83 kts 105°
2026-05-07 12:03 -33.84419 151.15973 450 ft 98 kts 114°
2026-05-07 12:03 -33.84519 151.16818 387 ft 110 kts 89°
2026-05-07 12:03 -33.84490 151.17749 346 ft 107 kts 90°
2026-05-07 12:04 -33.84628 151.18607 332 ft 96 kts 111°
2026-05-07 12:04 -33.84818 151.19378 286 ft 101 kts 120°
2026-05-07 12:04 -33.85098 151.20057 398 ft 84 kts 126°
2026-05-07 12:04 -33.85330 151.20637 491 ft 76 kts 135°
2026-05-07 12:05 -33.85576 151.21009 420 ft 22 kts 226°
2026-05-07 12:05 -33.85699 151.20835 268 ft 34 kts 254°
2026-05-07 12:05 -33.85849 151.20721 270 ft 4 kts 330°
2026-05-07 12:05 -33.85781 151.20743 170 ft 3 kts 354°
2026-05-07 12:06 -33.85707 151.20751 225 ft 32 kts 359°
2026-05-07 12:06 -33.85473 151.20857 215 ft 29 kts 15°
2026-05-07 12:06 -33.85363 151.20894 250 ft 14 kts 35°
2026-05-07 12:06 -33.85316 151.20965 354 ft 10 kts 26°
2026-05-07 12:07 -33.85308 151.20987 419 ft 4 kts 24°
2026-05-07 12:07 -33.85228 151.20961 317 ft 35 kts 339°
2026-05-07 12:07 -33.84957 151.20946 87 ft 32 kts 20°
2026-05-07 12:07 -33.84887 151.20950 60 ft 13 kts 353°
2026-05-07 12:08 -33.84812 151.20920 68 ft 0 kts
2026-05-07 12:08 -33.84804 151.20924 69 ft 3 kts
2026-05-07 12:08 -33.84811 151.20909 70 ft 5 kts 348°
2026-05-07 12:08 -33.84861 151.20890 152 ft 23 kts 193°
2026-05-07 12:09 -33.85139 151.21107 85 ft 63 kts 154°
2026-05-07 12:09 -33.85448 151.21429 126 ft 47 kts 172°
2026-05-07 12:09 -33.85586 151.21632 63 ft 22 kts 250°
2026-05-07 12:09 -33.85713 151.21698 128 ft 25 kts 283°
2026-05-07 12:10 -33.85820 151.21679 168 ft 15 kts 227°
2026-05-07 12:10 -33.85967 151.21799 231 ft 20 kts 231°
2026-05-07 12:10 -33.86037 151.21851 262 ft 6 kts 248°
2026-05-07 12:10 -33.86072 151.21864 269 ft 5 kts 259°
2026-05-07 12:11 -33.86103 151.21872 273 ft 5 kts 260°
2026-05-07 12:11 -33.86133 151.21877 277 ft 2 kts 294°
2026-05-07 12:11 -33.86122 151.21859 270 ft 13 kts 298°
2026-05-07 12:11 -33.86037 151.21729 311 ft 18 kts 292°
2026-05-07 12:12 -33.86007 151.21641 304 ft 8 kts 289°
2026-05-07 12:12 -33.85981 151.21587 338 ft 5 kts 292°
2026-05-07 12:12 -33.85923 151.21457 373 ft 44 kts 286°
2026-05-07 12:12 -33.85873 151.20911 559 ft 74 kts 269°
2026-05-07 12:13 -33.85878 151.20294 608 ft 72 kts 262°
2026-05-07 12:13 -33.86091 151.19856 619 ft 44 kts 198°
2026-05-07 12:13 -33.86331 151.20077 444 ft 22 kts 227°
2026-05-07 12:13 -33.86365 151.20082 501 ft 8 kts 305°
2026-05-07 12:14 -33.86151 151.19838 330 ft 63 kts 316°
2026-05-07 12:14 -33.85961 151.19506 367 ft 55 kts 270°
2026-05-07 12:14 -33.86284 151.19091 273 ft 76 kts 233°
2026-05-07 12:14 -33.86676 151.18795 388 ft 57 kts 233°
2026-05-07 12:15 -33.86945 151.18516 410 ft 53 kts 253°
2026-05-07 12:15 -33.86678 151.18181 391 ft 91 kts 346°
2026-05-07 12:15 -33.86108 151.18632 441 ft 103 kts 31°
2026-05-07 12:15 -33.85646 151.19100 411 ft 81 kts 25°
2026-05-07 12:16 -33.85308 151.19617 230 ft 52 kts 41°
2026-05-07 12:16 -33.85194 151.19708 83 ft 11 kts 21°
2026-05-07 12:16 -33.85177 151.19713 57 ft 0 kts 21°
2026-05-07 12:17 -33.85165 151.19723 120 ft 13 kts 14°
2026-05-07 12:17 -33.84822 151.19759 326 ft 59 kts 339°
2026-05-07 12:17 -33.84657 151.19367 512 ft 58 kts 265°
2026-05-07 12:18 -33.84614 151.18782 468 ft 80 kts 277°
2026-05-07 12:18 -33.84576 151.18071 334 ft 91 kts 276°
2026-05-07 12:18 -33.84578 151.17329 266 ft 85 kts 270°
2026-05-07 12:18 -33.84675 151.16668 274 ft 88 kts 268°
2026-05-07 12:19 -33.84475 151.16014 240 ft 89 kts 308°
2026-05-07 12:19 -33.84226 151.15353 178 ft 89 kts 274°
2026-05-07 12:19 -33.84349 151.14644 234 ft 89 kts 262°
2026-05-07 12:19 -33.84578 151.14299 593 ft 24 kts 253°
2026-05-07 12:20 -33.84661 151.14289 371 ft 19 kts 266°
2026-05-07 12:20 -33.84643 151.13909 231 ft 59 kts 283°
2026-05-07 12:20 -33.84468 151.13390 222 ft 77 kts 292°
2026-05-07 12:20 -33.84282 151.12752 217 ft 81 kts 288°
2026-05-07 12:21 -33.84104 151.12088 307 ft 73 kts 284°
2026-05-07 12:21 -33.83839 151.11457 106 ft 90 kts 294°
2026-05-07 12:21 -33.83569 151.10799 99 ft 87 kts 296°
2026-05-07 12:21 -33.83237 151.10202 108 ft 87 kts 308°
2026-05-07 12:22 -33.82749 151.09743 146 ft 90 kts 320°
2026-05-07 12:22 -33.82307 151.09223 157 ft 87 kts 297°
2026-05-07 12:22 -33.82227 151.08525 241 ft 85 kts 269°
2026-05-07 12:22 -33.82102 151.07795 190 ft 92 kts 288°
2026-05-07 12:23 -33.82093 151.07031 123 ft 98 kts 248°
2026-05-07 12:23 -33.82421 151.06350 130 ft 91 kts 263°
2026-05-07 12:23 -33.82417 151.05622 124 ft 82 kts 270°
2026-05-07 12:23 -33.82355 151.04942 97 ft 90 kts 294°
2026-05-07 12:24 -33.81873 151.04452 61 ft 92 kts 313°
2026-05-07 12:24 -33.81878 151.03739 55 ft 94 kts 251°
2026-05-07 12:24 -33.81797 151.02997 87 ft 91 kts 281°
2026-05-07 12:24 -33.81446 151.02506 131 ft 77 kts 291°
2026-05-07 12:25 -33.81567 151.01851 156 ft 86 kts 253°
2026-05-07 12:25 -33.81490 151.01186 254 ft 89 kts 308°
2026-05-07 12:25 -33.81109 151.00582 247 ft 95 kts 296°
2026-05-07 12:25 -33.81010 150.99812 293 ft 86 kts 283°
2026-05-07 12:26 -33.80609 150.99281 334 ft 90 kts 328°
2026-05-07 12:26 -33.80167 150.98975 232 ft 51 kts 325°
2026-05-07 12:26 -33.80088 150.98885 181 ft 2 kts 326°
2026-05-07 12:26 -33.80062 150.98885 147 ft 9 kts 332°
2026-05-07 12:27 -33.80029 150.98873 107 ft 6 kts 47°
2026-05-07 12:27 -33.79987 150.98920 81 ft 8 kts 29°
2026-05-07 12:27 -33.79973 150.98935 61 ft 1 kts 37°
2026-05-07 12:27 -33.79974 150.98936 58 ft 0 kts 56°
2026-05-07 12:28 -33.79977 150.98931 61 ft 0 kts 69°
2026-05-07 12:28 -33.79976 150.98931 61 ft 0 kts 69°